Location: Narrabri
(30.3170°S, 149.7830°E)
Time: 05:52:44
(UTC+11:00)

Vanguard 1 Rocket - All Passes

Search period start: 15 December 2017 00:00
Search period end: 25 December 2017 00:00
Orbit: 656 x 4222 km, 34.3° (Epoch: 13 December)

Date Brightness Start Highest point End Pass type
(mag) Time Alt. Az. Time Alt. Az. Time Alt. Az.
15 Dec - 00:02:11 10° NNE 00:11:54 13° NE 00:20:42 10° ENE visible
15 Dec - 02:21:27 10° NNW 02:43:30 41° NNE 02:57:39 10° E visible
15 Dec - 04:52:30 10° WNW 05:13:34 79° NNE 05:24:09 10° ESE visible
15 Dec - 07:27:33 10° W 07:41:42 70° S 07:48:46 10° ESE daylight
15 Dec - 09:59:46 10° WSW 10:08:08 88° NNW 10:13:05 10° ENE daylight
15 Dec - 12:29:19 10° WNW 12:32:18 16° NW 12:35:02 10° N daylight
16 Dec - 01:09:15 10° NNW 01:29:22 30° NE 01:44:24 10° E visible
16 Dec - 03:37:05 10° NW 04:00:20 64° NNE 04:13:07 10° ESE visible
16 Dec - 06:11:30 10° W 06:29:30 79° SSW 06:38:16 10° ESE daylight
16 Dec - 08:45:54 10° WSW 08:56:56 74° S 09:02:46 10° E daylight
16 Dec - 11:16:07 10° W 11:22:00 36° NW 11:26:13 10° NNE daylight
16 Dec - 23:59:29 10° N 00:15:02 19° NE 00:28:30 10° E visible
17 Dec - 02:22:46 10° NW 02:46:29 51° NNE 03:01:26 10° ESE visible
17 Dec - 04:55:10 10° WNW 05:16:46 88° NNE 05:27:36 10° ESE visible
17 Dec - 07:30:49 10° W 07:45:11 71° S 07:52:20 10° E daylight
17 Dec - 10:03:00 10° WSW 10:11:28 69° NNW 10:16:28 10° ENE daylight
18 Dec - 01:09:54 10° NNW 01:32:16 38° NE 01:48:42 10° E visible
18 Dec - 03:39:17 10° NW 04:03:22 74° NNE 04:16:34 10° ESE visible
18 Dec - 06:14:39 10° W 06:32:53 75° S 06:41:46 10° ESE daylight
18 Dec - 08:49:05 10° WSW 09:00:23 84° SSE 09:06:18 10° ENE daylight
18 Dec - 11:19:48 10° W 11:25:02 25° NW 11:28:57 10° NNE daylight
18 Dec - 23:58:55 10° N 00:17:55 26° NE 00:34:06 10° E visible
19 Dec - 02:24:29 10° NW 02:49:24 60° NNE 03:05:00 10° ESE visible
19 Dec - 04:58:02 10° WNW 05:19:59 85° SSW 05:31:02 10° ESE visible
19 Dec - 07:34:02 10° W 07:48:40 74° S 07:55:54 10° E daylight
19 Dec - 10:06:15 10° WSW 10:14:41 52° NNW 10:19:41 10° NE daylight
19 Dec - 22:51:26 10° NNE 23:03:38 15° NE 23:15:21 10° ENE visible
20 Dec - 01:11:04 10° NNW 01:35:02 46° NE 01:52:35 10° ESE visible
20 Dec - 03:41:46 10° WNW 04:06:26 83° NNE 04:19:58 10° ESE visible
20 Dec - 06:17:51 10° W 06:36:18 74° S 06:45:19 10° E daylight
20 Dec - 08:52:14 10° WSW 09:03:46 83° NNW 09:09:46 10° ENE daylight
20 Dec - 11:23:55 10° W 11:27:56 17° NW 11:31:08 10° N daylight
20 Dec - 23:59:20 10° NNW 00:20:36 34° NE 00:38:44 10° E visible
21 Dec - 02:26:32 10° NW 02:52:17 69° NNE 03:08:27 10° ESE visible
21 Dec - 05:01:04 10° W 05:23:16 80° SSW 05:34:30 10° ESE visible
21 Dec - 07:37:11 10° WSW 07:52:08 80° SSE 07:59:28 10° E daylight
21 Dec - 10:09:37 10° WSW 10:17:43 38° NW 10:22:42 10° NNE daylight
21 Dec - 22:49:55 10° N 23:06:22 22° NE 23:22:12 10° E visible
22 Dec - 01:12:41 10° NW 01:37:44 55° NE 01:56:11 10° ESE visible
22 Dec - 03:44:29 10° WNW 04:09:32 90° SSW 04:23:22 10° ESE visible
22 Dec - 06:21:03 10° W 06:39:45 75° S 06:48:52 10° E daylight
22 Dec - 08:55:21 10° WSW 09:07:01 68° NNW 09:13:06 10° NE daylight
22 Dec - 11:29:37 10° WNW 11:30:43 10° NW 11:31:45 10° NW daylight
22 Dec - 21:48:17 10° NE 21:52:23 11° NE 21:56:31 10° ENE visible
23 Dec - 00:00:23 10° NNW 00:23:09 41° NE 00:42:47 10° E visible
23 Dec - 02:28:53 10° NW 02:55:10 78° NNE 03:11:49 10° ESE visible
23 Dec - 05:04:11 10° W 05:26:36 77° S 05:37:59 10° E visible
23 Dec - 07:40:17 10° WSW 07:55:31 88° SSE 08:02:58 10° ENE daylight
23 Dec - 10:13:11 10° W 10:20:36 28° NW 10:25:24 10° NNE daylight
23 Dec - 22:49:56 10° N 23:08:52 28° NE 23:27:25 10° E visible
24 Dec - 01:14:38 10° NW 01:40:25 64° NNE 01:59:37 10° ESE visible
24 Dec - 03:47:24 10° WNW 04:12:41 84° SSW 04:26:48 10° ESE visible
24 Dec - 06:24:12 10° W 06:43:11 78° S 06:52:25 10° E daylight
24 Dec - 08:58:30 10° WSW 09:10:06 54° NW 09:16:17 10° NE daylight
24 Dec - 21:42:46 10° NNE 21:55:02 16° NE 22:07:54 10° E visible
